www.pogodaiklimat.ru
Время
и дата
15:53 30.01
16:53 30.01
17:53 30.01
18:53 30.01
19:53 30.01
20:53 30.01
21:53 30.01
22:53 30.01
23:53 30.01
00:53 31.01
01:53 31.01
02:53 31.01
03:53 31.01
04:53 31.01
05:53 31.01
06:53 31.01
07:53 31.01
08:53 31.01
09:53 31.01
10:53 31.01
11:53 31.01
12:53 31.01
13:53 31.01
14:53 31.01
15:53 31.01
16:53 31.01
17:53 31.01
18:53 31.01
19:53 31.01
20:53 31.01
21:53 31.01
22:53 31.01
23:53 31.01
00:53 01.02
01:53 01.02
02:53 01.02
03:53 01.02
04:53 01.02
05:53 01.02
06:53 01.02
07:53 01.02
08:53 01.02
09:53 01.02
10:53 01.02
11:53 01.02
12:53 01.02
13:53 01.02
14:53 01.02
Ветер
(напр.,м/с)
Видим. Явления Облачность Т
(С)
Тd
(С)
f
(%)
Тe
(С)
Тes
(С)
Комфортность P
(гПа)
Po
(гПа)
Тmin
(С)
Tmax
(С)
R
(мм)
R24
(мм)
S
(см)
С 6 16 км ясно +16.7 +0.6 34 +16 +18 1011.1 922.9
С 5 16 км ясно +16.1 +0.6 35 +15 +16 1011.2 923.2 +12.2 +17.2
СЗ 5
{9}
16 км ясно +13.9 +1.7 44 +12 +13 1012.1 923.6
С 3 16 км ясно +12.2 +2.2 50 +11 +11 1013.3 924.5
штиль 0 16 км ясно +11.1 +2.2 54 +11 +11 1013.5 924.5
штиль 0 16 км ясно +10.0 +2.2 58 +10 +10 1013.5 924.8
нст 3 16 км ясно +10.0 +2.2 58 +8 +8 1013.9 925.1
Ю 2 16 км ясно +7.2 +1.7 68 +5 +5 1014.1 925.4 +7.2 +16.1
ЮВ 2 16 км ясно +6.1 +1.1 70 +4 +4 1013.7 925.1
Ю 3 16 км ясно +5.0 +0.6 73 +2 +2 1013.5 925.1
ЮВ 3 16 км ясно +5.0 0.0 70 +2 +2 1013.6 925.1
ЮВ 3 16 км ясно +3.9 0.0 76 0 0 1013.3 924.8
ЮВ 3 16 км ясно +2.8 -1.1 75 -1 -1 1013.6 924.8
ЮВ 2 16 км ясно +2.8 -1.1 75 0 0 1013.7 924.8 +2.8 +7.8
ЮВ 3 16 км ясно +2.8 -1.1 75 -1 -1 1014.3 925.4
ЮВ 3 16 км ясно +2.8 -1.1 75 -1 -1 1015.0 925.7
ЮВ 3 16 км ясно +3.9 -1.1 70 0 0 1015.6 926.3
ЮВ 4 16 км ясно +7.2 0.0 60 +4 +4 1016.3 927.3
Ю 3 16 км ясно +10.6 +1.7 54 +9 +11 1016.4 927.6
нст 2 16 км ясно +12.2 +1.7 49 +12 +17 1016.8 927.9 +2.2 +12.8
штиль 0 16 км ясно +13.9 0.0 38 +14 +24 1016.0 927.3
нст 2 16 км ясно +15.0 -1.7 32 +15 +24 1014.7 926.0
штиль 0 16 км ясно +15.6 -1.7 30 +16 +28 опасность
простуды
1013.4 925.1
С 3 16 км ясно +16.1 -1.1 31 +16 +22 1013.0 924.5
СЗ 3 16 км 8/0 3000 m
[Ac]
+15.6 -0.6 33 +15 +17 1013.4 924.8
СЗ 3 16 км 5/0 3000 m
[Ac]
+15.0 -0.6 34 +15 +16 1013.6 924.8 +12.2 +16.7
СЗ 5 16 км 8/0 2700 m
[Ac]
+13.9 +1.7 44 +12 +12 1014.2 925.4
С 4 16 км 8/0 2850 m
[Ac]
+12.2 +3.3 54 +10 +10 1014.7 925.7
З 3 16 км 2/0 2700 m
[Ac]
+10.6 +3.9 63 +9 +9 1015.6 926.3
З 3 16 км 2/0 2550 m
[Ac]
+9.4 +3.9 68 +7 +7 1015.8 926.6
ЮЗ 3 16 км 2/0 2700 m
[Ac]
+8.9 +4.4 73 +7 +7 1016.2 927.3
ЮЗ 2 16 км ясно +7.8 +4.4 79 +6 +6 1016.4 927.6 +7.8 +15.0
штиль 0 16 км ясно +7.8 +3.9 76 +7 +7 1016.0 927.3
Ю 2 16 км ясно +6.1 +3.3 82 +4 +4 1016.1 927.3
ЮВ 4 16 км ясно +4.4 +1.7 83 0 0 1016.3 927.3
ЮВ 2 16 км ясно +3.9 +1.1 82 +1 +1 1016.5 927.6
Ю 3 16 км ясно +3.3 +0.6 82 -1 -1 1016.4 927.3
штиль 0 16 км 2/0 2100 m
[Ac]
+2.8 0.0 82 +2 +2 1016.1 926.9 +2.8 +8.3
Ю 2 16 км ясно +2.8 +0.6 85 0 0 1016.3 926.9
ЮВ 2 16 км ясно +2.2 0.0 85 -1 -1 1016.9 927.6
ЮВ 3 16 км ясно +2.2 0.0 85 -2 -2 1017.5 927.9
штиль 0 16 км ясно +4.4 +1.1 79 +4 +4 1018.1 928.5
Ю 2 16 км 8/0 2400 m
[Ac]
+7.2 +2.8 74 +5 +6 1018.5 929.1
штиль 0 16 км ясно +11.1 +4.4 63 +11 +18 1017.8 928.8 +1.7 +11.1
С 2 16 км ясно +12.8 +3.3 52 +12 +20 1016.7 927.9
СЗ 3 16 км ясно +14.4 +3.9 49 +14 +21 1015.8 927.3
нст 2 16 км 2/0 2400 m
[Ac]
+15.6 +4.4 47 +16 +24 1015.4 926.6
З 5 16 км 8/0 2700 m
[Ac]
+16.1 +2.8 41 +15 +17 1015.3 926.6
Местоположение метеостанции Tucson International Airport: широта 32.1314 долгота -110.9553 высота над уровнем моря 776 м.
В архиве по умолчанию представлена погода в Тусоне за последние 1-2 суток. Обновление информации о фактической погоде в базе происходит ежечасно! Архивные данные за месяц целиком и за предыдущие месяцы Вы можете получить, выбрав интересующий диапазон дат из раскрывающегося списка и нажав кнопку "Ввод!".
Внимание! Архив погоды МЕТАР в базе сайта по станциям, не включенным в климатический монитор, хранится не более 60 дней. Нет смысла пытаться выбрать более раннюю дату.
*Определитесь, кто Вы:
Внимание! Время в таблицах - местное (без учета летнего времени). Для получения всемирного времени необходимо вычесть поправку, которая равна -7 ч.
Смотрите также архив погоды в соседних городах и на ближайших метеорологических станциях:
Партнеры нашего сайта:      
Пояснения к столбцам:
  • Ветер - указаны скорость ветра в м/с - средняя за 10 мин, порывы в срок и между сроками (в фигурных скобках) и направление, откуда дует ветер: С - северный,
  • СВ - северо-восточный, В - восточный, ЮВ - юго-восточный, Ю - южный, ЮЗ - юго-западный, З - западный, СЗ - северо-западный.
  • Видимость - горизонтальная дальность видимости в метрах или километрах. При видимости от 1 до 10 км при отсутствии осадков обычно наблюдается дымка, при ухудшении видимости до 1 км и менее - туман. В сухую погоду видимость может ухудшаться дымом, пылью или мглою.
  • Явления - указаны атмосферные явления, наблюдавшиеся в срок или в последний час перед сроком; фигурными скобками обозначены явления, наблюдавшиеся между сроками (за 1-3 часа до срока); квадратными скобками обозначены град или гололедные отложения с указанием их диаметра в мм.
  • Облачность - указаны через наклонную черту общая и нижняя облачность в баллах и высота нижней границы облаков в метрах; квадратными скобками обозначены формы облаков: Ci - перистые, Cs - перисто-слоистые, Cc - перисто-кучевые, Ac - высококучевые, As - высокослоистые, Sc - слоисто-кучевые, Ns - слоисто-дождевые, Cu - кучевые, Cb - кучево-дождевые. Подробнее классификацию облаков см. в Атласе облаков (PDF).
  • T - Температура воздуха - температура, измеренная на высоте 2 м над землей.
  • Td - Температура точки росы - температура, при понижении до которой содержащийся в воздухе водяной пар достигнет насыщения.
  • f - Относительная влажность воздуха - влажноcть воздуха, измеренная на высоте 2 м над землей.
  • Te - Эффективная температура - температура, которую ощущает одетый по сезону человек в тени. Характеристика душности погоды. При расчете учитывается влияние влажности воздуха и скорости ветра на теплоощущения человека.
  • Tes - Эффективная температура на солнце - температура, которую ощущает человек, с поправкой на солнечный нагрев. Характеристика знойности погоды. Зависит от высоты солнца над горизонтом, облачности и скорости ветра. Ночью, в пасмурную погоду, а также при ветре 12 м/с и более поправка равна нулю.
  • P - Атмосферное давление - приведенное к уровню моря атмосферное давление.
  • Po - Атмосферное давление - измеренное на уровне метеостанции атмосферное давление.
  • Tmin - Минимальная температура - минимум температуры воздуха на высоте 2 м над землей.
  • Tmax - Максимальная температура - максимум температуры воздуха на высоте 2 м над землей.
  • R - Количество осадков - Количество выпавших осадков за период времени, мм. При наведении курсора мыши на число - период времени, за который выпало указанное количество осадков.
  • R24 - Количество осадков - Количество выпавших осадков за 24 часа, мм.
  • S - Снежный покров - Высота снежного покрова, см. При наведении курсора мыши на число - состояние снежного покрова и степень покрытия местности в баллах.